{"data":{"norad_id":66625,"intl_designator":"2025-271J","name":"STARLINK-35929","alt_names":[],"object_type":"PAYLOAD","status":"ACTIVE","operator":null,"country":"US","launch_date":"2025-11-23","launch_site_code":"AFWTR","launch_vehicle":null,"mission":null,"orbit_class":"UNKNOWN","rcs_meters":null,"size_class":null,"mass_kg":null,"dimensions":null,"purposes":["comms"],"wikipedia_slug":null,"has_3d_model":false,"image_url":null,"decayed_at":null,"tle_current":{"epoch":"2026-09-20T14:31:19.424352Z","epoch_age_seconds":77671,"freshness":"FRESH","line1":"1 66625U 25271J   26263.60508593  .00020052  00000+0  60313-3 0  9991","line2":"2 66625  53.1598 309.2851 0001774  53.5819 306.5347 15.34394290 47476","mean_motion":15.3439429,"eccentricity":0.0001774,"inclination_deg":53.1598,"raan_deg":309.2851,"arg_perigee_deg":53.5819,"mean_anomaly_deg":306.5347,"bstar":0.00060313,"rev_number":4747,"period_min":93.848107320577,"perigee_km":461.50664351373,"apogee_km":463.9337796524,"semimajor_km":6840.8572115831,"source":"CELESTRAK","updated_at":"2026-09-21T09:00:35.983597Z"}}}